Zurück zum Katalog

STARLINK-33779

AktivKommunikationVLEO
NORAD 63880·PAYLOAD·🇺🇸 United States

Gestartet May 10, 2025 von Vandenberg Space Force Base

Loading…

Nächste Überflüge (nächste 24 Stunden)

TLE

AktuellSource: CelesTrak SupGP

Epoche: Sep 15, 2026, 03:16 UTC

1 63880C 25094S   26258.13659722 -.00007334  00000+0 -25524-3 0  2580
2 63880  69.9985 115.3711 0003586 269.9689 188.5115 15.29567922    11

Verfolge STARLINK-33779 in Echtzeit mit AllMySat

Download on the App Store